Location: ???????
(38.3360°N, 23.6977°E)
Time: 05:11:26
(UTC+00:00)

Meteor 2-3 Rocket - Pass Details

Date: 17 November 2025
Orbit: 841 x 884 km, 81.2° (Epoch: 09 December)

Event Time Altitude Azimuth Distance (km) Brightness Sun altitude
Rises 16:58:22 0° 356° (N) 3,455 6.8 -21.0°
Reaches altitude 10° 17:00:54 10° 1° (N) 2,507 6.1 -21.5°
Maximum altitude 17:06:26 52° 78° (ENE) 1,051 3.8 -22.5°
Enters shadow 17:07:29 46° 113° (ESE) 1,133 3.9 -22.7°
Exits shadow 17:14:15 - 159° (SSE) 3,358 6.7 -24.1°
Sets 17:14:20 0° 159° (SSE) 3,391 6.7 -24.1°
